DW5750 Weather Reports


Display with metric or nautical units.
time (UTC)temp
F
wind
direction
speed
MPH
gust
MPH
rain 1hr
in
rain 24hr
in
rain mn
in
humidity
%
barometer
mb
20260906151543 79 153 6.0 10.0 0.00 0.02 0.02 92 1010.5
20260906150032 79 196 5.0 9.0 0.00 0.02 0.02 92 1010.4
20260906144531 79 153 1.0 8.0 0.00 0.02 0.02 91 1010.4
20260906143035 80 169 5.0 7.0 0.00 0.02 0.02 91 1010.3
20260906141523 80 129 4.0 7.0 0.00 0.02 0.02 91 1010.2
20260906140025 79 123 2.0 6.0 0.00 0.02 0.02 92 1010.2
20260906134522 79 164 4.0 7.0 0.00 0.02 0.02 92 1010.1
20260906133025 78 162 3.0 8.0 0.00 0.02 0.02 94 1009.9
20260906131520 78 187 4.0 8.0 0.00 0.02 0.02 94 1009.9
20260906130014 77 200 2.0 8.0 0.00 0.02 0.02 94 1009.9
20260906124514 77 228 3.0 9.0 0.00 0.02 0.02 95 1009.7
20260906123029 77 166 2.0 7.0 0.00 0.02 0.02 95 1009.4
20260906121515 76 207 6.0 10.0 0.00 0.02 0.02 95 1009.3
20260906120012 76 190 2.0 8.0 0.00 0.02 0.02 96 1009.4
20260906114514 76 179 3.0 9.0 0.00 0.02 0.02 97 1009.2
20260906113011 76 210 4.0 9.0 0.00 0.02 0.02 98 1009.0
20260906111511 75 184 0.0 0.0 0.00 0.02 0.02 99 1009.0
20260906110009 75 304 0.0 0.0 0.02 0.02 0.02 99 1009.1
20260906104508 75 324 0.0 0.0 0.02 0.02 0.02 98 1009.0
20260906103008 75 293 0.0 0.0 0.02 0.02 0.02 98 1008.9
20260906101518 75 298 0.0 0.0 0.02 0.02 0.02 98 1008.8
20260906100006 76 40 0.0 0.0 0.01 0.01 0.01 98 1008.8
20260906094505 76 319 0.0 0.0 0.00 0.00 0.00 96 1008.7
20260906093004 76 341 0.0 0.0 0.00 0.00 0.00 95 1008.7
20260906091504 77 240 0.0 0.0 0.00 0.00 0.00 94 1008.9
20260906090005 77 240 0.0 0.0 0.00 0.00 0.00 94 1008.8
20260906084502 77 230 0.0 0.0 0.00 0.00 0.00 94 1008.7
20260906083107 77 219 0.0 0.0 0.00 0.00 0.00 93 1008.8
20260906081600 77 210 0.0 7.0 0.00 0.00 0.00 93 1008.9
20260906080117 77 232 3.0 7.0 0.00 0.00 0.00 93 1008.9
20260906074607 77 229 0.0 0.0 0.00 0.00 0.00 93 1009.0
20260906073108 77 216 0.0 0.0 0.00 0.00 0.00 93 1009.1
20260906071551 76 217 0.0 0.0 0.00 0.00 0.00 94 1009.3
20260906070049 76 283 0.0 0.0 0.00 0.00 0.00 94 1009.4
20260906064547 76 288 0.0 0.0 0.00 0.00 0.00 95 1009.6
20260906063049 76 301 0.0 0.0 0.00 0.00 0.00 95 1009.7
20260906061544 76 307 0.0 0.0 0.00 0.00 0.00 95 1009.9
20260906060041 75 303 0.0 0.0 0.00 0.00 0.00 95 1010.2
20260906054541 76 317 0.0 0.0 0.00 0.00 0.00 95 1010.3
20260906053040 76 315 0.0 2.0 0.00 0.00 0.00 95 1010.5
20260906051554 76 297 0.0 0.0 0.00 0.00 0.00 94 1010.5
20260906050042 77 231 0.0 0.0 0.00 0.00 0.00 93 1010.7
20260906044547 77 224 1.0 7.0 0.00 0.00 0.00 93 1010.7
20260906043047 77 250 0.0 7.0 0.00 0.00 0.00 93 1010.7
20260906041539 77 222 4.0 9.0 0.00 0.00 0.00 92 1010.7
20260906040039 78 231 3.0 8.0 0.00 0.00 0.00 93 1010.6
20260906034540 78 227 5.0 8.0 0.00 0.00 0.00 93 1010.6
20260906033036 78 227 6.0 10.0 0.00 0.00 0.00 93 1010.5
20260906031542 78 218 5.0 10.0 0.00 0.00 0.00 93 1010.5
20260906030035 78 217 7.0 12.0 0.00 0.00 0.00 93 1010.2
20260906024534 78 208 8.0 12.0 0.00 0.00 0.00 93 1010.0
20260906023034 78 204 7.0 12.0 0.00 0.00 0.00 93 1009.9
20260906021534 78 169 6.0 14.0 0.00 0.00 0.00 93 1009.8
20260906020032 78 207 7.0 12.0 0.00 0.00 0.00 93 1009.6
20260906014532 78 195 8.0 13.0 0.00 0.00 0.00 93 1009.4
20260906013052 78 189 7.0 10.0 0.00 0.00 0.00 93 1009.3
20260906011531 78 156 7.0 12.0 0.00 0.00 0.00 93 1009.1
20260906010031 78 196 6.0 10.0 0.00 0.00 0.00 93 1008.9
20260906004530 78 198 5.0 10.0 0.00 0.00 0.00 93 1008.7
20260906003033 78 193 5.0 10.0 0.00 0.00 0.00 93 1008.5
20260906001529 78 203 7.0 11.0 0.00 0.00 0.00 93 1008.2
20260906000028 78 196 9.0 13.0 0.00 0.00 0.00 93 1007.9
20260905234528 78 208 3.0 10.0 0.00 0.00 0.00 93 1007.6
20260905233035 79 205 9.0 13.0 0.00 0.00 0.00 92 1007.3
20260905231529 79 203 7.0 12.0 0.00 0.00 0.00 92 1007.1
20260905230026 79 160 8.0 12.0 0.00 0.00 0.00 91 1007.0
20260905224525 80 153 7.0 10.0 0.00 0.00 0.00 91 1007.0
20260905223024 79 205 6.0 13.0 0.00 0.00 0.00 92 1006.9
20260905221523 80 180 6.0 13.0 0.00 0.00 0.00 91 1006.9
20260905220022 80 211 8.0 14.0 0.00 0.00 0.00 89 1006.8
20260905214523 80 212 8.0 14.0 0.00 0.00 0.00 90 1006.9
20260905213020 81 201 6.0 12.0 0.00 0.00 0.00 90 1006.9
20260905211518 80 194 6.0 12.0 0.00 0.00 0.00 90 1007.2
20260905210023 80 207 8.0 15.0 0.00 0.00 0.00 91 1007.2
20260905204516 80 193 10.0 15.0 0.00 0.00 0.00 89 1007.1
20260905203013 81 214 9.0 15.0 0.00 0.00 0.00 90 1007.2
20260905201513 81 212 7.0 15.0 0.00 0.00 0.00 91 1007.3
20260905200009 80 156 9.0 14.0 0.00 0.00 0.00 91 1007.6
20260905194508 81 186 8.0 14.0 0.00 0.00 0.00 90 1007.8
20260905193006 81 174 9.0 16.0 0.00 0.00 0.00 89 1008.0
20260905191505 81 180 10.0 16.0 0.00 0.00 0.00 88 1008.2
20260905190058 81 214 11.0 16.0 0.00 0.00 0.00 88 1008.5